Location: Unspecified
(0.0000°N, 0.0000°E)
Time: 04:55:17
(UTC+00:00)

Vanguard 1 - Pass Details

Date: 15 December 2023
Orbit: 653 x 3826 km, 34.3° (Epoch: 22 February)

Event Time Altitude Azimuth Distance (km) Brightness Sun altitude
Rises 17:57:21 0° 325° (NW) 5,633 14.1 -0.5°
Reaches altitude 10° 18:03:25 10° 346° (NNW) 5,272 13.7 -1.9°
Maximum altitude 18:12:20 16° 19° (NNE) 5,537 13.5 -3.9°
Drops below altitude 10° 18:23:19 10° 51° (NE) 6,676 13.7 -6.5°
Enters shadow 18:26:36 - 58° (ENE) 7,092 13.8 -7.2°
Sets 18:33:08 0° 70° (ENE) 7,952 - -8.7°
